Location: Newark
(35.2672°N, 80.7344°W)
Time: 22:08:04
(UTC+00:00)

Vanguard 2 Rocket - Pass Details

Date: 19 January 2020
Orbit: 554 x 3327 km, 32.9° (Epoch: 19 February)

Event Time Altitude Azimuth Distance (km) Brightness Sun altitude
Rises 13:09:46 0° 260° (W) 3,431 9.4 6.4°
Reaches altitude 10° 13:11:48 10° 258° (WSW) 2,707 8.9 6.7°
Maximum altitude 13:18:23 76° 173° (S) 1,421 8.2 7.9°
Drops below altitude 10° 13:30:29 10° 91° (E) 4,762 11.7 10.0°
Sets 13:35:15 0° 90° (E) 6,204 12.2 10.8°
